This demonstration page uses our WeatherBlox Daily Observations layout. Learn more.

Left ArrowRight Arrow

39.01783, -85.05884

Hourly Observations for February 24, 2021

Temp ( °F °C ) Dew Point ( °F °C ) Humidity (%) Winds ( mph kmh ) Pressure ( in mb ) Visibility ( mi km ) Precip ( " mm )
12:52 am 00:52 Mostly Cloudy 40 4.4 24 -4.4 53 53 S 8 13 29.95 1014 10 16 0.00 0.00
1:52 am 01:52 Mostly Cloudy 41 5 24 -4.4 51 51 S 7 11 29.94 1014 10 16 0.00 0.00
2:52 am 02:52 Mostly Cloudy 38 3.3 26 -3.3 62 62 S 9 15 29.92 1013 10 16 0.00 0.00
3:52 am 03:52 Mostly Cloudy 40 4.4 28 -2.2 63 63 S 8 13 29.91 1013 10 16 0.00 0.00
4:52 am 04:52 Mostly Cloudy 42 5.6 30 -1.1 62 62 S 12 19 29.90 1012 10 16 0.00 0.00
5:52 am 05:52 Partly Cloudy 42 5.6 30 -1.1 62 62 S 10 17 29.89 1012 10 16 0.00 0.00
6:52 am 06:52 Partly Cloudy 42 5.6 30 -1.1 62 62 S 10 17 29.88 1012 10 16 0.00 0.00
7:52 am 07:52 Mostly Sunny 45 7.2 31 -0.6 58 58 S 12 19 29.88 1012 10 16 0.00 0.00
8:52 am 08:52 Mostly Sunny 50 10 31 -0.6 48 48 S 15 24 29.88 1012 10 16 0.00 0.00
9:52 am 09:52 Mostly Cloudy 54 12.2 32 0 43 43 SSW 16 26 29.86 1011 10 16 0.00 0.00
10:52 am 10:52 Mostly Sunny 59 15 35 1.7 41 41 SW 18 30 29.85 1011 10 16 0.00 0.00
11:52 am 11:52 Partly Cloudy 60 15.6 36 2.2 41 41 SW 15 24 29.84 1011 10 16 0.00 0.00
12:52 pm 12:52 Mostly Sunny 63 17.2 38 3.3 40 40 WSW 22 35 29.83 1010 10 16 0.00 0.00
1:52 pm 13:52 Mostly Cloudy 62 16.7 40 4.4 44 44 SW 18 30 29.82 1010 10 16 0.00 0.00
2:52 pm 14:52 Cloudy 60 15.6 39 3.9 46 46 WSW 17 28 29.83 1010 10 16 0.00 0.00
3:52 pm 15:52 Cloudy with Light Rain 55 12.8 44 6.7 67 67 W 17 28 29.89 1012 8 13 0.02 0.51
4:52 pm 16:52 Cloudy 54 12.2 43 6.1 67 67 WNW 9 15 29.91 1013 10 16 0.01 0.25
5:52 pm 17:52 Cloudy 52 11.1 37 2.8 57 57 NW 13 20 29.95 1014 10 16 0.00 0.00
6:52 pm 18:52 Mostly Cloudy 49 9.4 33 0.6 55 55 NW 13 20 30.00 1016 10 16 0.00 0.00
7:52 pm 19:52 Mostly Cloudy 47 8.3 31 -0.6 54 54 NW 12 19 30.03 1017 10 16 0.00 0.00
8:52 pm 20:52 Mostly Clear 45 7.2 31 -0.6 58 58 NNW 15 24 30.06 1018 10 16 0.00 0.00
9:52 pm 21:52 Partly Cloudy 40 4.4 32 0 73 73 N 17 28 30.11 1020 10 16 0.00 0.00
10:52 pm 22:52 Partly Cloudy 39 3.9 31 -0.6 73 73 NNW 15 24 30.16 1021 10 16 0.00 0.00
11:52 pm 23:52 Cloudy 38 3.3 31 -0.6 76 76 NNW 10 17 30.17 1022 10 16 0.00 0.00

Powered by AerisWeather